Regional Weather Roundup
Issued by NWS

Home | Current Version | Previous Version | Graphics & Text | Print | Product List | Glossary On
Versions: 1 2 3 4 5 6 7 8 9 10 11 12 13 14 15 16 17 18 19 20 21 22 23 24 25 26 27 28 29 30 31 32 33 34 35 36 37 38 39 40 41 42 43 44 45 46 47 48 49 50
000
ASUS45 KBOU 270307
RWRCO

WEATHER ROUNDUP FOR COLORADO
NATIONAL WEATHER SERVICE DENVER/BOULDER CO
800 PM MST WED NOV 26 2014

NOTE: "FAIR" INDICATES FEW OR NO CLOUDS BELOW 12000 FEET WITH NO
SIGNIFICANT WEATHER AND/OR OBSTRUCTIONS TO VISIBILITY.

COZ001>005-013-030-031-270400-
...NORTHWEST COLORADO...

CITY           SKY/WX    TMP DP  RH WIND       PRES   REMARKS
CRAIG          MOCLDY    35  28  75 CALM      30.38R
HAYDEN         MOCLDY    37  27  65 CALM      30.38R
MEEKER         CLEAR     31  25  78 NE5       30.41R WCI  26
MOUNT WERNER   NOT AVBL
STEAMBOAT SPGS MOCLDY    36  31  83 E7        30.38R
WALDEN         CLEAR     34  23  64 W13G21    30.33R WCI  25
$$

COZ006>008-011-270400-
...WEST CENTRAL VALLEYS...

CITY           SKY/WX    TMP DP  RH WIND       PRES   REMARKS
GRAND JUNCTION CLEAR     35  23  61 E5        30.40R WCI  31
MONTROSE       CLEAR     32  24  72 SE8       30.45R WCI  25
EAGLE          CLEAR     32  28  86 SE6       30.45R WCI  26
RIFLE          CLEAR     28  23  81 SW3       30.44R
DELTA          CLEAR     37  26  65 NE6       30.43R
NUCLA          CLEAR     36  27  69 E10       30.47R
$$

COZ017>023-064>068-270400-
...SOUTHWEST COLORADO...

CITY           SKY/WX    TMP DP  RH WIND       PRES   REMARKS
DURANGO        CLEAR     34  21  59 E8        30.40R WCI  27
CORTEZ         CLEAR     31  20  63 E8        30.43R WCI  23
PAGOSA SPRINGS CLEAR     30  19  65 CALM      30.44S
TELLURIDE      NOT AVBL
WOLF CREEK PAS CLEAR     28   9  43 MISG      30.54R
$$

COZ009-010-012-014-032>034-037-058>063-270400-
...CENTRAL COLORADO...

CITY           SKY/WX    TMP DP  RH WIND       PRES   REMARKS
ASPEN          CLEAR     26  20  77 S8        30.46R WCI  18
BUENA VISTA    CLEAR     40  20  44 N10G17    30.35R
COPPER MTN     MOCLDY    27  21  80 W26G36    30.46R WCI  11
BERTHOUD PASS  NOT AVBL
COTTONWOOD PAS CLEAR     39  12  33 W23G36    30.37S
GUNNISON       CLEAR     30  19  64 NW9       30.46R WCI  22
KREMMLING      PTCLDY    34  25  69 W7        30.40R WCI  28
LEADVILLE      PTCLDY    30  18  60 W10G17    30.44R WCI  21
MONARCH PASS     N/A     21  19  93 MISG      30.53R
SALIDA         CLEAR     44  20  38 W8        30.42R
SUNLIGHT       CLEAR    N/A N/A N/A SW3       30.51R
WILKERSON PASS PTCLDY    30  16  55 CALM      30.44R
$$

COZ069>075-270400-
...SAN LUIS VALLEY/SANGRE DE CRISTO MOUNTAINS...

CITY           SKY/WX    TMP DP  RH WIND       PRES   REMARKS
ALAMOSA        PTCLDY    25  17  72 VRB3      30.41R
LA VETA PASS   CLEAR     32  19  59 S14G25    30.40R WCI  22
SAGUACHE       CLEAR     36  27  69 N12       30.41S
$$

COZ035-036-038>040-270400-
...NORTHERN COLORADO FRONT RANGE...

CITY           SKY/WX    TMP DP  RH WIND       PRES   REMARKS
DENVER INTL AP PTCLDY    27  23  85 SW3       30.22S
DMNS CITY PARK   N/A     29  24  81 NE2       30.24S
AURORA         PTCLDY    30  24  81 W3        30.23F
FRONT RANGE AP NOT AVBL
ERIE MUNI ARPT PTCLDY    24  22  92 CALM      30.25R
BOULDER MUN AP PTCLDY    28  27  93 NW5       30.24R WCI  23
CENTENNIAL     PTCLDY    30  24  78 E3        30.22F
BROOMFIELD     PTCLDY    30  27  86 N6        30.23R WCI  24
FORT COLLINS   CLEAR     25  18  74 N3        30.28R
LONGMONT       CLEAR     28  24  86 N6        30.28R WCI  22
$$

COZ041-046-047-076>085-087-088-270400-
...PIKES PEAK/PALMER DIVIDE AND SOUTHERN FOOTHILLS...

CITY           SKY/WX    TMP DP  RH WIND       PRES   REMARKS
COLO. SPRINGS  PTCLDY    26  21  81 VRB3      30.31R
A. F. ACADEMY  PTCLDY    25  21  86 VRB6      30.29R WCI  18
ELLICOTT       NOT AVBL
FALCON         NOT AVBL
FORT CARSON    PTCLDY    28  23  82 SW1       30.29R
LIMON          CLEAR     27  20  75 S10       30.27S WCI  17
MONUMENT HILL  PTCLDY    32  23  69 SW9       30.25S WCI  24
TRINIDAD       CLEAR     33  26  75 CALM      30.28R
$$

COZ042>045-048>051-090-091-270400-
...NORTHEAST COLORADO...

CITY           SKY/WX    TMP DP  RH WIND       PRES   REMARKS
GREELEY ARPT   CLEAR     25  18  74 NE5       30.28R WCI  19
AKRON          MOCLDY    24  22  91 SE13      30.26S WCI  12
BURLINGTON     PTCLDY    23  20  88 S10       30.30F WCI  12
WRAY           CLOUDY    28  26  91 CALM      30.32F
STERLING       MOCLDY    25  23  93 CALM      30.29R
HOLYOKE        CLOUDY    32  30  93 CALM      30.32R
FORT MORGAN    MOCLDY    24  21  90 E6        30.27F WCI  17
$$

COZ086-089-092>099-270400-
...SOUTHEAST COLORADO...

CITY           SKY/WX    TMP DP  RH WIND       PRES   REMARKS
PUEBLO         CLEAR     30  22  72 CALM      30.32R
LA JUNTA       CLEAR     30  22  72 E7        30.31R WCI  23
LAMAR          CLEAR     28  19  69 SE8       30.32S WCI  20
SPRINGFIELD      N/A     25  19  78 NE3       30.33R
$$


USA.gov is the U.S. government's official web portal to all federal, state and local government web resources and services.